Location: Narrabri
(30.3170°S, 149.7830°E)
Time: 03:27:49
(UTC+10:00)

Hubble Space Telescope - Visible Passes

Search period start: 20 September 2018 00:00
Search period end: 30 September 2018 00:00
Orbit: 537 x 541 km, 28.5° (Epoch: 19 September)

Date Brightness Start Highest point End Pass type
(mag) Time Alt. Az. Time Alt. Az. Time Alt. Az.
20 Sep 2.9 04:42:24 11° NNW 04:45:13 19° NNE 04:48:15 10° ENE visible
21 Sep 2.5 04:32:47 17° NNW 04:34:45 24° NNE 04:38:09 10° ENE visible
22 Sep 2.2 04:23:06 25° N 04:24:18 29° NNE 04:27:57 10° E visible
23 Sep 1.8 04:13:21 33° N 04:13:52 35° NNE 04:17:42 10° E visible
24 Sep 1.6 04:03:33 41° NNE 04:03:33 41° NNE 04:07:23 10° E visible
25 Sep 1.7 03:53:44 43° NE 03:53:44 43° NE 03:57:04 10° E visible
26 Sep 2.0 03:43:53 38° ENE 03:43:53 38° ENE 03:46:43 10° E visible
26 Sep 0.9 05:19:35 10° W 05:23:44 68° N 05:27:54 10° E visible
27 Sep 2.4 03:34:01 31° ENE 03:34:01 31° ENE 03:36:21 10° E visible
27 Sep 0.9 05:09:22 11° W 05:13:22 65° N 05:17:30 10° ENE visible
28 Sep 2.9 03:24:10 24° E 03:24:10 24° E 03:25:59 10° E visible
28 Sep 1.0 04:59:31 14° W 05:02:58 60° N 05:07:05 10° ENE visible
29 Sep 3.3 03:14:21 19° E 03:14:21 19° E 03:15:36 10° E visible
29 Sep 1.1 04:49:42 18° W 04:52:34 54° N 04:56:39 10° ENE visible
